Theta_e
325 323 327 333 340 345 350 348 345 343 344 345 342 337 339 342 342 345 343 340 330 336 341 336 330 324 323 322 321 323 326 326 325 323 325 333 336 337 337 337 337 337 336 336 335 336 339 340 340
324 323 326 335 335 339 343 344 344 342 341 345 344 344 341 343 343 343 343 338 328 333 337 335 329 323 324 323 322 321 321 322 323 325 331 335 337 336 335 338 337 337 336 336 335 336 339 341 340
321 324 326 331 335 335 340 342 343 342 343 346 347 346 342 345 341 343 343 335 327 331 336 333 328 323 324 324 322 321 321 323 325 329 334 337 336 335 336 337 336 336 336 336 335 337 340 342 341
322 321 324 331 333 334 336 340 341 342 343 345 347 346 345 343 344 343 341 334 324 326 334 332 327 323 325 324 322 323 324 326 331 335 336 336 336 335 335 336 334 332 332 334 335 338 341 342 342
322 323 328 329 330 330 330 334 340 342 341 342 345 346 347 343 343 343 339 337 324 324 332 330 327 323 326 324 324 326 327 330 334 334 335 336 335 335 335 335 333 331 332 334 336 339 339 341 341
322 324 327 329 330 329 334 337 341 340 341 344 345 344 346 343 343 343 341 339 327 322 328 328 326 323 326 325 325 327 328 332 333 334 335 335 334 334 334 333 331 330 331 333 334 337 338 338 340
322 324 325 326 327 328 329 336 339 341 342 343 343 344 345 343 344 344 343 336 332 323 327 327 325 323 326 326 326 327 330 333 333 333 333 333 333 333 332 330 328 329 329 331 332 336 338 338 338
318 322 323 324 325 326 332 339 341 340 340 342 344 346 345 342 344 344 343 340 333 322 324 325 324 325 325 326 326 328 332 333 333 333 332 332 332 329 327 327 328 328 329 330 333 337 338 337 338
316 320 321 322 323 324 335 339 341 341 341 342 343 345 343 340 342 344 342 340 329 321 324 324 324 332 330 329 325 328 332 332 333 332 330 331 328 326 330 333 331 332 332 333 337 340 340 339 340
317 319 319 320 321 322 328 335 336 342 342 342 341 340 341 341 342 344 343 339 332 321 323 323 323 323 333 330 326 328 330 333 332 332 330 329 326 328 335 336 335 334 334 336 338 341 339 339 338
314 318 317 318 318 319 320 329 335 339 340 336 335 339 340 342 342 343 343 338 332 322 325 325 323 323 327 331 330 329 329 331 331 331 330 327 325 332 335 335 335 335 336 338 339 341 339 338 337
314 314 315 316 316 318 319 319 324 329 326 323 332 334 339 342 343 342 341 336 336 333 323 325 324 323 328 336 328 327 328 330 331 330 329 326 328 331 333 333 334 336 338 339 339 340 341 341 339
314 316 314 315 314 315 316 318 322 328 327 328 328 332 338 343 344 343 341 337 337 333 323 322 323 323 327 333 330 328 328 329 329 329 329 325 331 333 336 338 339 339 339 339 338 339 339 338 336
315 315 316 315 315 313 314 318 325 322 327 327 334 337 337 343 344 343 343 340 337 331 323 322 322 323 324 328 329 327 328 328 329 329 328 327 335 339 338 339 339 339 339 339 338 336 336 336 337
314 316 317 316 315 316 321 331 333 326 334 338 340 339 341 341 342 343 342 340 340 334 325 323 323 323 323 325 328 329 329 328 329 329 327 332 334 337 338 338 338 339 339 338 338 336 337 338 338
315 315 318 317 316 327 324 321 328 338 337 340 342 341 340 338 338 340 341 339 340 341 335 326 323 324 323 324 325 328 329 329 329 330 327 332 334 334 335 335 335 337 340 339 340 338 339 338 335
315 320 317 318 317 324 329 324 330 338 339 337 337 338 339 339 339 339 341 341 339 339 341 336 324 324 323 322 325 326 328 330 330 330 327 328 333 334 336 336 336 337 339 341 340 340 340 340 335
321 321 320 321 320 327 322 330 330 333 334 334 334 334 335 336 337 338 338 340 339 339 341 341 338 327 325 323 324 327 328 329 328 328 327 327 327 330 331 335 335 337 339 340 341 341 341 340 334
318 321 323 322 324 331 331 330 328 327 328 328 328 330 330 332 334 336 339 339 338 338 338 339 341 340 330 326 324 326 326 327 327 327 327 327 328 335 338 336 335 336 339 341 341 341 340 336 333
320 321 322 323 327 329 330 330 327 325 324 324 324 325 327 330 330 330 334 337 337 337 337 337 338 340 340 334 328 327 326 325 326 327 327 327 331 338 340 340 338 338 338 338 338 338 335 333 332
320 319 318 320 326 328 326 330 329 326 322 323 323 324 325 327 327 329 333 335 336 336 337 338 338 339 339 338 329 328 329 326 328 333 329 326 335 339 341 341 340 338 337 336 334 334 333 332 331
316 316 315 316 322 325 322 327 329 327 323 321 321 322 324 324 324 325 328 333 336 335 336 337 337 338 337 337 333 327 329 327 334 337 330 330 335 338 340 340 340 339 337 334 333 333 332 331 333
315 315 316 316 318 325 325 325 329 325 323 321 320 320 321 321 321 323 329 333 335 336 334 335 336 337 336 334 337 334 332 329 336 339 338 335 337 339 339 339 340 338 335 332 332 332 332 333 332
314 316 317 323 321 323 323 325 329 325 321 322 321 320 320 319 319 320 324 330 334 336 336 336 335 334 334 334 335 336 337 337 336 336 337 338 337 338 337 336 335 334 333 333 332 333 333 331 325
316 315 313 318 325 326 323 324 326 322 320 321 320 319 320 319 318 318 320 324 330 334 334 333 335 336 336 336 336 336 335 332 332 334 335 336 335 334 333 333 332 332 331 329 328 326 324 314 314
315 317 313 312 314 314 320 324 327 320 319 318 319 318 317 317 319 318 319 320 324 326 328 331 333 332 330 330 331 331 331 326 321 325 318 317 316 321 323 321 327 328 326 318 317 313 308 309 311
316 316 316 321 322 321 320 327 321 320 319 317 317 317 317 317 318 318 319 319 319 320 320 320 320 320 320 320 321 323 323 321 322 318 319 317 312 310 313 310 306 308 310 309 306 306 306 307 307
316 316 316 317 315 315 318 323 320 323 321 318 317 317 317 317 316 317 319 320 319 319 319 320 319 318 317 317 317 317 318 318 317 317 316 317 314 310 307 306 304 304 305 304 305 305 306 306 306
316 316 316 317 321 317 315 316 323 322 319 318 316 316 316 316 316 315 317 318 318 318 318 318 318 318 316 316 316 316 316 315 315 315 314 314 314 312 308 306 304 302 304 304 305 304 304 305 304
317 317 316 313 316 319 319 315 319 319 317 316 315 315 315 316 316 314 315 316 317 317 317 317 317 317 317 317 317 317 316 315 314 314 314 312 311 309 307 305 304 302 302 303 303 303 303 303 302
Wind_Speed
9 5 3 1 3 2 1 2 3 2 3 2 4 3 5 4 3 1 2 21 23 27 26 25 21 20 21 22 24 23 23 21 20 20 22 22 20 18 17 16 15 14 13 14 14 15 16 14 13
11 8 4 2 3 1 1 1 5 1 2 3 5 5 4 3 2 2 11 23 27 27 27 26 23 21 21 23 23 24 24 23 23 23 23 21 19 17 16 16 14 13 13 13 15 15 15 15 14
13 9 3 2 2 3 2 4 4 2 2 4 2 2 2 2 4 5 12 24 27 28 27 26 24 23 22 21 23 24 25 26 25 24 22 20 18 17 17 15 14 13 13 14 15 15 13 13 13
13 5 3 5 8 3 3 4 3 4 3 4 2 3 4 1 4 9 25 26 28 29 29 27 25 24 23 23 23 24 26 26 25 22 21 19 18 17 16 15 13 12 12 13 13 13 13 11 10
15 4 3 5 7 3 5 6 9 7 4 6 6 5 3 6 5 13 27 27 28 29 30 28 27 25 24 25 25 26 26 25 23 21 20 19 18 17 16 14 12 11 12 13 12 12 11 9 8
5 3 5 13 9 3 3 5 12 10 7 7 8 10 6 11 13 17 25 24 26 29 32 30 28 27 26 25 26 27 26 25 23 22 21 19 18 17 15 13 12 11 11 12 11 10 9 7 7
5 4 9 7 6 6 7 8 11 10 8 7 5 6 4 20 19 22 29 24 27 30 31 30 30 29 28 28 28 28 27 25 23 22 21 19 18 16 15 13 13 12 11 11 10 9 8 8 8
4 3 5 6 9 12 3 7 3 12 10 7 8 7 6 23 23 25 24 28 31 32 32 32 30 30 31 30 30 30 28 26 23 22 20 18 17 16 15 14 14 13 12 12 11 10 9 8 9
6 6 8 10 9 6 5 8 5 5 7 7 9 11 11 9 22 28 32 27 33 34 35 34 32 29 29 30 32 32 30 26 24 22 20 19 18 17 15 15 15 14 13 13 14 11 9 9 8
6 6 9 5 9 7 7 10 6 5 8 11 14 18 16 15 24 29 33 33 34 37 38 36 35 34 30 30 33 33 31 28 26 23 21 19 18 18 17 15 15 14 13 12 13 12 10 11 10
4 8 6 11 15 11 10 6 7 7 9 22 22 16 20 21 24 30 33 31 32 34 34 36 35 35 33 31 32 32 33 31 28 25 22 21 20 19 18 16 15 14 14 12 11 11 11 9 8
4 10 12 11 15 8 15 14 11 22 23 26 21 20 19 25 25 28 35 32 31 32 36 35 36 35 34 28 33 34 34 32 30 27 24 23 21 21 19 17 16 16 14 12 11 12 9 7 5
7 8 9 18 13 14 11 19 12 16 28 23 23 20 18 25 24 23 26 28 28 33 37 37 36 37 36 32 31 34 34 33 30 27 26 25 24 23 21 19 17 16 15 12 11 10 8 6 4
4 8 8 8 10 9 9 6 6 14 16 24 20 18 18 21 20 21 23 28 32 34 37 37 36 37 37 36 33 34 34 33 31 29 28 27 26 24 23 20 17 16 16 15 13 11 8 6 5
0 5 8 4 5 3 7 4 8 22 16 13 11 9 8 5 11 14 19 25 30 34 34 35 36 38 38 36 35 34 33 32 31 30 29 28 28 26 24 21 19 18 19 17 16 13 10 9 9
2 1 3 3 3 2 4 7 18 26 15 10 9 7 5 6 3 9 15 21 26 32 33 34 37 38 37 37 36 36 35 33 32 32 31 31 29 28 26 22 21 20 19 18 16 15 14 12 11
3 1 2 4 11 3 2 7 20 19 14 14 17 15 12 8 6 5 9 15 22 28 31 32 37 39 37 37 38 37 36 35 35 34 33 33 31 29 27 23 21 20 20 20 19 17 16 14 13
2 2 1 2 5 9 4 9 14 17 16 17 18 18 17 13 10 8 7 15 16 18 27 30 33 38 38 38 41 40 40 38 37 36 36 34 34 32 29 27 24 23 22 21 21 20 19 17 15
3 2 2 2 4 5 7 9 13 16 21 23 23 21 20 18 15 10 8 12 18 20 21 25 34 36 38 41 44 44 44 42 41 40 39 37 35 32 30 28 27 26 25 25 23 22 21 20 19
2 2 5 3 6 3 6 10 10 17 19 21 22 23 24 23 23 20 12 10 15 25 24 27 30 36 40 41 44 45 46 46 44 43 41 40 38 35 32 31 30 28 27 26 25 23 22 22 21
1 1 3 2 3 5 2 4 8 10 20 21 24 22 23 24 28 32 25 11 8 22 30 30 31 34 38 39 39 47 47 47 45 44 45 44 42 39 37 36 34 31 29 27 26 24 24 24 24
3 1 8 9 4 5 2 3 3 10 13 18 23 26 25 27 28 28 32 27 13 14 25 32 27 26 29 31 38 47 49 48 50 48 48 47 46 44 43 40 38 35 31 28 26 25 25 25 24
3 13 9 7 7 3 4 4 4 5 9 16 21 23 23 23 26 33 34 27 3 11 18 25 28 22 21 28 36 45 46 48 48 49 49 48 48 46 45 43 40 36 31 28 26 25 25 27 28
11 2 2 3 3 5 3 3 2 3 5 11 16 21 23 25 26 30 30 25 9 5 8 13 17 20 28 32 39 42 42 46 53 52 50 51 51 50 45 41 38 34 29 27 26 27 28 27 26
10 2 2 3 4 1 3 2 4 3 3 8 15 20 21 22 24 28 32 28 21 8 11 11 14 15 21 28 35 36 40 41 44 51 54 52 52 49 47 43 38 33 29 27 26 25 23 20 21
4 4 2 2 2 0 0 3 3 5 4 6 9 13 17 20 20 23 24 23 18 10 7 7 12 13 14 19 25 30 34 31 28 32 23 25 28 44 39 32 34 34 29 24 22 21 19 19 20
2 2 2 3 1 3 1 3 5 7 1 6 8 11 15 16 17 16 16 16 19 21 18 17 17 16 15 15 12 10 11 13 19 22 31 29 18 19 31 26 19 21 26 22 20 20 18 18 17
2 5 3 2 3 3 4 4 4 14 4 3 6 9 11 12 13 12 10 4 7 8 8 10 13 10 9 8 4 11 10 6 9 13 20 18 17 7 6 17 14 17 16 23 23 21 20 15 15
3 3 3 1 2 2 2 2 2 5 3 2 4 5 7 9 9 10 9 3 5 4 6 6 5 4 6 9 10 9 10 7 8 14 13 13 14 13 9 14 17 15 16 16 18 18 19 15 16
1 2 1 3 4 1 2 3 4 4 3 3 4 4 5 6 7 7 9 9 9 6 7 5 1 1 2 4 6 6 9 12 13 15 15 14 15 17 15 14 16 16 16 15 13 17 16 18 17
Wind_Direction
214 191 142 30 238 284 285 195 297 250 182 197 176 203 182 99 172 57 225 169 174 169 173 172 173 167 162 161 162 164 165 163 157 149 140 135 131 128 124 125 128 130 130 130 127 119 121 115 113
202 174 142 102 245 232 244 287 252 270 98 146 162 154 166 127 154 226 136 161 168 170 170 173 173 171 166 161 160 160 161 158 153 147 143 139 135 133 128 126 126 125 126 128 136 128 122 110 103
187 171 175 160 176 226 176 212 244 155 207 180 183 112 127 122 212 188 164 160 167 170 172 174 175 174 171 166 160 157 156 154 151 147 145 142 140 136 133 133 132 128 127 129 135 133 127 117 106
168 146 74 234 218 214 232 194 231 167 142 198 224 147 137 184 230 194 164 162 164 170 172 176 177 176 173 169 162 158 155 154 151 150 150 148 145 142 143 141 138 135 136 138 140 140 131 121 111
164 148 181 229 238 223 231 228 210 202 171 179 177 189 197 169 137 163 164 165 168 170 173 178 177 178 177 173 166 164 160 158 157 156 155 154 152 150 150 148 146 146 145 145 147 145 141 132 117
145 161 201 224 228 221 223 224 179 215 207 171 185 170 203 186 162 169 176 174 172 174 175 179 178 178 180 178 173 169 166 165 164 162 161 160 160 158 157 156 157 158 154 155 156 154 149 142 131
199 191 227 232 233 239 242 207 212 217 215 201 182 215 217 192 182 180 179 176 176 178 179 179 179 180 182 181 179 174 173 171 168 166 166 167 167 166 166 169 169 169 168 166 163 159 155 150 142
176 214 203 223 228 244 194 185 208 212 234 200 192 226 217 205 195 182 181 180 179 179 182 183 182 182 184 183 183 180 177 175 173 171 172 174 173 173 173 177 177 174 172 167 160 157 159 151 144
163 219 226 225 213 222 190 213 193 226 231 218 220 228 241 238 201 185 182 182 180 181 185 185 184 183 186 186 184 184 183 181 179 179 180 181 180 177 175 180 178 174 170 165 162 158 151 156 155
203 225 214 228 221 232 218 218 224 203 231 251 245 239 245 218 192 187 188 186 186 185 186 188 186 186 188 187 186 188 187 187 186 186 186 186 184 181 178 178 180 177 175 171 166 161 150 141 141
182 237 210 233 231 236 245 239 225 225 237 248 249 230 221 202 193 198 195 195 195 189 189 190 189 189 191 191 190 191 191 192 192 191 191 191 188 184 183 181 186 185 185 180 174 170 167 163 162
221 237 221 251 233 225 235 252 245 237 244 263 267 264 228 207 203 198 198 197 194 194 193 194 195 194 195 195 196 194 195 195 196 195 194 195 193 189 191 189 192 195 192 190 181 183 185 188 200
217 251 216 241 246 241 240 243 250 255 252 254 266 265 233 218 211 206 209 203 200 200 197 198 199 198 201 203 200 199 199 200 200 200 199 197 197 193 193 193 196 201 204 202 200 193 198 206 222
219 236 266 267 253 229 212 246 202 272 288 255 252 246 249 219 214 215 207 209 211 209 204 200 202 204 203 207 207 206 205 204 205 204 204 201 200 200 198 203 208 211 215 214 209 213 221 236 264
125 286 295 291 273 243 190 208 231 347 326 300 280 275 257 249 227 217 210 222 225 219 213 210 205 207 208 207 209 211 211 210 209 208 207 206 206 207 210 214 217 221 223 221 217 216 233 257 276
171 159 337 16 296 86 214 242 4 358 349 12 21 8 327 320 272 224 229 245 238 227 223 218 212 212 212 212 212 213 213 212 212 211 212 212 213 214 216 223 224 228 225 221 213 221 238 253 267
38 112 328 312 45 33 297 337 359 12 42 49 48 46 43 21 4 290 247 232 245 239 230 227 222 218 217 215 216 216 216 214 214 214 216 218 218 220 221 223 226 226 222 224 225 232 245 255 250
51 63 274 357 25 40 93 24 22 32 51 45 43 37 33 31 10 335 276 249 267 260 241 235 234 228 225 222 219 219 219 216 217 218 219 222 223 225 228 229 228 228 228 227 232 236 242 246 234
136 116 44 72 136 76 70 58 38 36 46 42 38 34 24 17 2 357 315 267 264 261 254 247 242 238 235 229 225 223 221 220 220 221 222 222 224 226 227 228 226 227 229 232 237 239 238 230 224
96 3 47 97 111 109 147 71 60 45 42 40 29 25 20 12 10 4 356 335 256 242 245 246 245 243 240 238 234 231 226 223 225 224 224 223 223 225 228 228 228 229 230 233 234 235 230 223 218
207 80 313 296 82 125 184 103 55 26 28 26 25 21 20 13 3 7 6 328 288 241 231 239 240 245 241 239 235 237 235 230 226 225 224 224 223 224 227 229 231 232 235 238 238 229 224 224 216
280 85 308 281 235 252 267 250 75 3 23 27 17 13 11 6 5 5 6 353 241 244 238 232 234 241 245 245 238 240 241 236 228 226 222 222 225 225 226 230 230 231 236 237 233 225 219 217 224
302 322 299 293 264 262 29 262 46 11 17 9 6 6 5 6 4 5 11 13 31 231 231 237 234 240 254 270 253 245 245 242 238 230 225 223 224 224 225 225 226 230 232 230 228 228 227 234 228
317 302 82 131 181 220 23 319 69 33 353 353 359 2 0 1 4 8 15 19 0 241 240 256 252 248 256 257 247 251 246 251 247 243 230 225 223 222 219 217 219 221 223 225 227 231 230 229 222
1 334 167 158 176 156 35 247 84 131 42 3 353 355 359 1 5 9 14 17 12 315 269 257 255 243 235 244 239 235 241 239 248 245 242 224 220 215 212 213 212 213 212 217 220 220 217 211 214
16 357 13 225 200 204 99 195 150 155 80 8 1 355 356 1 6 11 21 29 28 42 114 187 219 228 239 240 241 239 240 238 220 213 211 202 212 202 199 202 206 202 206 203 203 195 192 191 204
75 67 1 105 79 241 162 167 163 157 77 7 358 358 358 360 6 13 21 55 61 67 65 56 42 37 30 21 357 271 250 257 248 224 214 206 220 202 183 175 175 181 181 184 184 178 176 177 185
42 123 198 173 219 241 190 244 254 199 248 326 330 340 343 348 0 10 19 53 65 59 52 21 10 42 55 55 74 76 82 171 193 220 220 196 205 219 174 148 158 155 171 165 167 162 158 163 167
151 159 75 65 289 260 274 216 107 159 180 268 321 329 333 349 351 355 359 329 357 356 358 5 19 53 104 110 109 110 102 107 121 155 142 143 153 180 174 153 151 139 163 143 161 141 146 153 169
113 139 196 251 180 208 303 265 159 189 199 263 308 309 316 327 341 345 342 337 321 316 336 339 84 165 160 186 178 150 142 134 147 149 151 141 142 144 143 144 154 162 148 157 147 146 141 163 163